Time,TemperatureF,DewpointF,PressureIn,WindDirection,WindDirectionDegrees,WindSpeedMPH,WindSpeedGustMPH,Humidity,HourlyPrecipIn,Conditions,Clouds,dailyrainin,SoftwareType,DateUTC
2016-08-25 00:07:00,75.2,74.0,30.00,SSW,200,2.0,5.0,96,0.00,,,0.00,weatherlink.com 1.10,2016-08-25 04:07:00,
2016-08-25 00:22:00,75.3,74.0,30.00,South,178,1.0,7.0,95,0.00,,,0.00,weatherlink.com 1.10,2016-08-25 04:22:00,
2016-08-25 00:37:00,75.6,74.0,30.00,SW,218,4.0,7.0,95,0.00,,,0.00,weatherlink.com 1.10,2016-08-25 04:37:00,
2016-08-25 00:52:00,75.9,74.0,30.00,SSW,198,5.0,9.0,94,0.00,,,0.00,weatherlink.com 1.10,2016-08-25 04:52:00,
2016-08-25 01:07:00,76.3,74.0,30.00,SW,221,2.0,8.0,93,0.00,,,0.00,weatherlink.com 1.10,2016-08-25 05:07:00,
2016-08-25 01:22:00,76.6,75.0,30.00,SSE,153,0.0,4.0,93,0.00,,,0.00,weatherlink.com 1.10,2016-08-25 05:22:00,
2016-08-25 01:37:00,76.6,74.0,30.00,SSW,211,0.0,4.0,92,0.00,,,0.00,weatherlink.com 1.10,2016-08-25 05:37:00,
2016-08-25 01:52:00,76.5,74.0,30.00,SW,222,0.0,1.0,93,0.00,,,0.00,weatherlink.com 1.10,2016-08-25 05:52:00,
2016-08-25 02:07:00,76.4,74.0,30.00,WSW,246,1.0,3.0,93,0.00,,,0.00,weatherlink.com 1.10,2016-08-25 06:07:00,
2016-08-25 02:22:00,76.2,74.0,30.00,SSE,166,0.0,5.0,93,0.00,,,0.00,weatherlink.com 1.10,2016-08-25 06:22:00,
2016-08-25 02:37:00,76.2,74.0,30.01,SW,223,2.0,4.0,93,0.00,,,0.00,weatherlink.com 1.10,2016-08-25 06:37:00,
2016-08-25 02:52:00,76.2,74.0,30.01,SW,227,1.0,3.0,94,0.00,,,0.00,weatherlink.com 1.10,2016-08-25 06:52:00,
2016-08-25 03:07:00,76.1,74.0,30.00,SW,215,0.0,3.0,94,0.00,,,0.00,weatherlink.com 1.10,2016-08-25 07:07:00,
2016-08-25 03:22:00,76.1,74.0,30.00,West,263,1.0,8.0,94,0.00,,,0.00,weatherlink.com 1.10,2016-08-25 07:22:00,
2016-08-25 03:37:00,76.4,75.0,30.00,WSW,237,2.0,9.0,94,0.00,,,0.00,weatherlink.com 1.10,2016-08-25 07:37:00,
2016-08-25 03:53:00,76.7,75.0,30.01,South,188,6.0,7.0,93,0.00,,,0.00,weatherlink.com 1.10,2016-08-25 07:53:00,
2016-08-25 04:07:00,76.9,75.0,30.01,WSW,243,3.0,4.0,93,0.00,,,0.00,weatherlink.com 1.10,2016-08-25 08:07:00,
2016-08-25 04:22:00,77.2,75.0,30.01,WSW,244,5.0,10.0,92,0.00,,,0.00,weatherlink.com 1.10,2016-08-25 08:22:00,
2016-08-25 04:37:00,77.3,75.0,30.01,SSW,198,4.0,8.0,92,0.00,,,0.00,weatherlink.com 1.10,2016-08-25 08:37:00,
2016-08-25 04:52:00,77.5,75.0,30.01,NW,312,3.0,10.0,92,0.00,,,0.00,weatherlink.com 1.10,2016-08-25 08:52:00,
2016-08-25 05:07:00,77.5,75.0,30.01,WSW,257,2.0,4.0,92,0.00,,,0.00,weatherlink.com 1.10,2016-08-25 09:07:00,
2016-08-25 05:22:00,77.4,75.0,30.01,SW,232,2.0,5.0,92,0.00,,,0.00,weatherlink.com 1.10,2016-08-25 09:22:00,
2016-08-25 05:52:00,77.1,75.0,30.01,SSW,202,2.0,4.0,92,0.00,,,0.00,weatherlink.com 1.10,2016-08-25 09:52:00,
2016-08-25 06:07:00,76.8,74.0,30.01,SSW,207,0.0,4.0,92,0.00,,,0.00,weatherlink.com 1.10,2016-08-25 10:07:00,
2016-08-25 06:22:00,76.6,74.0,30.01,SSW,207,1.0,2.0,92,0.00,,,0.00,weatherlink.com 1.10,2016-08-25 10:22:00,
2016-08-25 06:37:00,76.4,74.0,30.01,SE,129,2.0,3.0,93,0.00,,,0.00,weatherlink.com 1.10,2016-08-25 10:37:00,
2016-08-25 06:52:00,76.3,75.0,30.02,SE,133,0.0,2.0,94,0.00,,,0.00,weatherlink.com 1.10,2016-08-25 10:52:00,
2016-08-25 07:07:00,76.2,74.0,30.02,SE,133,0.0,2.0,94,0.00,,,0.00,weatherlink.com 1.10,2016-08-25 11:07:00,
2016-08-25 07:22:00,76.0,74.0,30.03,SE,133,0.0,1.0,94,0.00,,,0.00,weatherlink.com 1.10,2016-08-25 11:22:00,
2016-08-25 07:37:00,76.0,75.0,30.03,WSW,238,2.0,3.0,95,0.00,,,0.00,weatherlink.com 1.10,2016-08-25 11:37:00,
2016-08-25 07:52:00,76.1,75.0,30.04,SW,227,2.0,4.0,95,0.00,,,0.00,weatherlink.com 1.10,2016-08-25 11:52:00,
2016-08-25 08:07:00,76.3,75.0,30.03,SSW,209,2.0,4.0,95,0.00,,,0.00,weatherlink.com 1.10,2016-08-25 12:07:00,
2016-08-25 08:22:00,76.5,75.0,30.03,SW,219,1.0,3.0,95,0.00,,,0.00,weatherlink.com 1.10,2016-08-25 12:22:00,
2016-08-25 08:37:00,76.6,75.0,30.02,SSW,211,1.0,3.0,95,0.00,,,0.00,weatherlink.com 1.10,2016-08-25 12:37:00,
2016-08-25 09:07:00,77.2,76.0,30.01,SSW,198,2.0,5.0,95,0.00,,,0.00,weatherlink.com 1.10,2016-08-25 13:07:00,
2016-08-25 09:22:00,77.5,76.0,30.01,SW,217,2.0,7.0,94,0.00,,,0.00,weatherlink.com 1.10,2016-08-25 13:22:00,
2016-08-25 09:37:00,78.3,77.0,30.02,SW,215,3.0,6.0,94,0.00,,,0.00,weatherlink.com 1.10,2016-08-25 13:37:00,
2016-08-25 09:52:00,79.4,77.0,30.01,WSW,251,2.0,8.0,93,0.00,,,0.00,weatherlink.com 1.10,2016-08-25 13:52:00,
2016-08-25 10:08:00,80.8,78.0,30.01,WNW,286,1.0,8.0,90,0.00,,,0.00,weatherlink.com 1.10,2016-08-25 14:08:00,
2016-08-25 10:23:00,81.3,77.0,30.01,South,181,4.0,8.0,87,0.00,,,0.00,weatherlink.com 1.10,2016-08-25 14:23:00,
2016-08-25 10:38:00,81.2,77.0,30.01,SSW,211,5.0,9.0,87,0.00,,,0.00,weatherlink.com 1.10,2016-08-25 14:38:00,
2016-08-25 10:53:00,81.8,77.0,30.01,SW,225,2.0,9.0,86,0.00,,,0.00,weatherlink.com 1.10,2016-08-25 14:53:00,
2016-08-25 11:08:00,82.0,78.0,30.01,West,265,2.0,8.0,87,0.00,,,0.00,weatherlink.com 1.10,2016-08-25 15:08:00,
2016-08-25 11:23:00,82.5,78.0,30.01,WNW,294,2.0,6.0,87,0.00,,,0.00,weatherlink.com 1.10,2016-08-25 15:23:00,
2016-08-25 11:38:00,83.3,78.0,30.01,WSW,241,5.0,9.0,84,0.00,,,0.00,weatherlink.com 1.10,2016-08-25 15:38:00,
2016-08-25 11:53:00,83.9,78.0,30.01,SW,233,6.0,10.0,83,0.00,,,0.00,weatherlink.com 1.10,2016-08-25 15:53:00,
2016-08-25 12:08:00,84.6,79.0,30.02,SSW,196,4.0,8.0,83,0.00,,,0.00,weatherlink.com 1.10,2016-08-25 16:08:00,
2016-08-25 12:23:00,85.3,80.0,30.02,SW,218,9.0,12.0,83,0.00,,,0.00,weatherlink.com 1.10,2016-08-25 16:23:00,
2016-08-25 12:38:00,85.5,79.0,30.02,South,187,5.0,10.0,81,0.00,,,0.00,weatherlink.com 1.10,2016-08-25 16:38:00,
2016-08-25 12:53:00,86.2,79.0,30.02,SW,236,7.0,10.0,80,0.00,,,0.00,weatherlink.com 1.10,2016-08-25 16:53:00,
2016-08-25 13:08:00,85.8,79.0,30.02,SSE,162,1.0,10.0,80,0.00,,,0.00,weatherlink.com 1.10,2016-08-25 17:08:00,
2016-08-25 13:23:00,86.6,80.0,30.01,SW,232,4.0,10.0,80,0.00,,,0.00,weatherlink.com 1.10,2016-08-25 17:23:00,
2016-08-25 13:38:00,87.9,80.0,30.00,South,180,3.0,10.0,77,0.00,,,0.00,weatherlink.com 1.10,2016-08-25 17:38:00,
2016-08-25 13:53:00,88.2,79.0,30.00,SW,215,6.0,10.0,75,0.00,,,0.00,weatherlink.com 1.10,2016-08-25 17:53:00,
2016-08-25 14:08:00,89.2,81.0,30.00,West,261,6.0,10.0,76,0.00,,,0.00,weatherlink.com 1.10,2016-08-25 18:08:00,
2016-08-25 14:23:00,89.2,80.0,30.00,SSW,205,6.0,13.0,73,0.00,,,0.00,weatherlink.com 1.10,2016-08-25 18:23:00,
2016-08-25 14:38:00,89.3,80.0,30.00,SSW,201,4.0,9.0,74,0.00,,,0.00,weatherlink.com 1.10,2016-08-25 18:38:00,
2016-08-25 14:53:00,90.1,80.0,30.00,South,186,5.0,11.0,71,0.00,,,0.00,weatherlink.com 1.10,2016-08-25 18:53:00,
2016-08-25 15:08:00,90.3,79.0,30.00,South,190,4.0,14.0,70,0.00,,,0.00,weatherlink.com 1.10,2016-08-25 19:08:00,
2016-08-25 15:23:00,90.3,79.0,30.00,SSE,157,5.0,12.0,69,0.00,,,0.00,weatherlink.com 1.10,2016-08-25 19:23:00,
2016-08-25 15:38:00,90.3,78.0,29.99,WSW,252,8.0,11.0,68,0.00,,,0.00,weatherlink.com 1.10,2016-08-25 19:38:00,
2016-08-25 15:53:00,90.7,78.0,29.99,North,355,2.0,12.0,66,0.00,,,0.00,weatherlink.com 1.10,2016-08-25 19:53:00,
2016-08-25 16:08:00,90.9,78.0,29.99,West,267,8.0,11.0,65,0.00,,,0.00,weatherlink.com 1.10,2016-08-25 20:08:00,
2016-08-25 16:23:00,91.4,77.0,29.99,WSW,256,2.0,12.0,62,0.00,,,0.00,weatherlink.com 1.10,2016-08-25 20:23:00,
2016-08-25 16:38:00,91.7,77.0,29.98,NNW,328,5.0,8.0,62,0.00,,,0.00,weatherlink.com 1.10,2016-08-25 20:38:00,
2016-08-25 16:54:00,91.5,76.0,29.98,SSW,212,4.0,10.0,60,0.00,,,0.00,weatherlink.com 1.10,2016-08-25 20:54:00,
2016-08-25 17:09:00,90.4,75.0,29.98,West,273,4.0,12.0,61,0.00,,,0.00,weatherlink.com 1.10,2016-08-25 21:09:00,
2016-08-25 17:24:00,89.6,75.0,29.98,West,265,2.0,9.0,62,0.00,,,0.00,weatherlink.com 1.10,2016-08-25 21:24:00,
2016-08-25 17:39:00,89.7,76.0,29.98,WSW,238,4.0,10.0,65,0.00,,,0.00,weatherlink.com 1.10,2016-08-25 21:39:00,
2016-08-25 18:09:00,89.1,75.0,29.98,SW,227,1.0,11.0,64,0.00,,,0.00,weatherlink.com 1.10,2016-08-25 22:09:00,
2016-08-25 18:24:00,88.1,74.0,29.98,West,263,2.0,10.0,64,0.00,,,0.00,weatherlink.com 1.10,2016-08-25 22:24:00,
2016-08-25 18:39:00,87.6,75.0,29.97,SSW,200,4.0,8.0,67,0.00,,,0.00,weatherlink.com 1.10,2016-08-25 22:39:00,
2016-08-25 18:54:00,87.2,76.0,29.98,SSW,196,1.0,5.0,69,0.00,,,0.00,weatherlink.com 1.10,2016-08-25 22:54:00,
2016-08-25 19:09:00,86.4,75.0,29.98,ESE,119,3.0,6.0,68,0.00,,,0.00,weatherlink.com 1.10,2016-08-25 23:09:00,
2016-08-25 19:24:00,85.6,74.0,29.98,WSW,253,1.0,5.0,69,0.00,,,0.00,weatherlink.com 1.10,2016-08-25 23:24:00,
2016-08-25 19:39:00,85.0,75.0,29.98,SW,225,2.0,5.0,71,0.00,,,0.00,weatherlink.com 1.10,2016-08-25 23:39:00,
2016-08-25 19:54:00,84.2,75.0,29.98,SW,228,2.0,8.0,73,0.00,,,0.00,weatherlink.com 1.10,2016-08-25 23:54:00,
2016-08-25 20:09:00,83.6,75.0,29.98,South,188,2.0,6.0,75,0.00,,,0.00,weatherlink.com 1.10,2016-08-26 00:09:00,
2016-08-25 20:24:00,83.0,75.0,29.98,SSW,208,2.0,5.0,76,0.00,,,0.00,weatherlink.com 1.10,2016-08-26 00:24:00,
2016-08-25 20:39:00,82.2,75.0,29.98,SSW,213,0.0,3.0,78,0.00,,,0.00,weatherlink.com 1.10,2016-08-26 00:39:00,
2016-08-25 20:54:00,81.2,75.0,29.98,SW,214,0.0,1.0,80,0.00,,,0.00,weatherlink.com 1.10,2016-08-26 00:54:00,
2016-08-25 21:09:00,80.0,74.0,29.98,SSW,213,0.0,1.0,82,0.00,,,0.00,weatherlink.com 1.10,2016-08-26 01:09:00,
2016-08-25 21:24:00,78.9,74.0,29.99,SSW,213,0.0,0.0,84,0.00,,,0.00,weatherlink.com 1.10,2016-08-26 01:24:00,
2016-08-25 21:39:00,78.0,74.0,30.00,SSW,213,0.0,1.0,86,0.00,,,0.00,weatherlink.com 1.10,2016-08-26 01:39:00,
2016-08-25 21:54:00,77.3,73.0,30.00,SSW,213,0.0,0.0,87,0.00,,,0.00,weatherlink.com 1.10,2016-08-26 01:54:00,
2016-08-25 22:09:00,76.8,73.0,30.01,SSW,213,0.0,0.0,88,0.00,,,0.00,weatherlink.com 1.10,2016-08-26 02:09:00,
2016-08-25 22:24:00,76.1,73.0,30.01,SW,214,0.0,0.0,89,0.00,,,0.00,weatherlink.com 1.10,2016-08-26 02:24:00,
2016-08-25 22:54:00,75.2,73.0,30.01,SSW,213,0.0,2.0,91,0.00,,,0.00,weatherlink.com 1.10,2016-08-26 02:54:00,
2016-08-25 23:09:00,74.8,72.0,30.01,SSW,213,0.0,1.0,91,0.00,,,0.00,weatherlink.com 1.10,2016-08-26 03:09:00,